Regional Weather Roundup
Issued by NWS Cleveland, OH

Home | Current Version | Previous Version | Text Only | Print | Product List | Glossary Off
Versions: 1 2 3 4 5 6 7 8 9 10 11 12 13 14 15 16 17 18 19 20 21 22 23 24 25 26 27 28 29 30 31 32 33 34 35 36 37 38 39 40 41 42 43 44 45 46 47 48 49 50

690
ASUS41 KCLE 281700
RWRCLE
OHIO REGIONAL WEATHER ROUNDUP
NATIONAL WEATHER SERVICE WILMINGTON, OH
100 PM EDT SAT MAY 28 2016

NOTE: "FAIR" INDICATES FEW OR NO CLOUDS BELOW 12,000 FEET WITH NO
SIGNIFICANT WEATHER AND/OR OBSTRUCTIONS TO VISIBILITY.

OHZ001>008-015>018-024>027-034-035-043-044-281800-
   NORTHWEST OHIO

CITY           SKY/WX    TMP DP  RH WIND       PRES   REMARKS
DEFIANCE       FAIR      83  59  44 SW16G26   30.05S
FINDLAY        FAIR      86  61  42 SW13G21   30.06F
TOLEDO EXPRESS FAIR      86  62  44 S17G23    30.05S
TOLEDO EXEC    FAIR      88  61  40 SW10      30.05F
LIMA           FAIR      84  62  47 SW14      30.08F
$$

OHZ009>014-019>023-028>033-038-089-281800-
   NORTHEAST OHIO

CITY           SKY/WX    TMP DP  RH WIND       PRES   REMARKS
CLE-HOPKINS    CLOUDY    82  65  56 S9        30.12F
CLE-LAKEFRONT  FAIR      82  66  58 SW9       30.09S
CUY CO. ARPT   CLOUDY    86  68  54 SW12      30.11S
LORAIN-ELYRIA  FAIR      84  65  52 SW14      30.10F
ASHTABULA      FAIR      87  64  46 S14       30.11F
AKRON-CANTON   FAIR      84  65  52 W12       30.13F
WOOSTER        NOT AVBL
MANSFIELD      FAIR      83  66  56 S9        30.13F
YOUNGSTOWN     PTSUNNY   83  63  50 SW7       30.13F
$$

OHZ042-051>053-060>062-070>072-077>081-281800-
  SOUTHWEST OHIO

CITY           SKY/WX    TMP DP  RH WIND       PRES   REMARKS
CINC-COVINGTON CLOUDY    78  67  68 S9        30.12F
CINC-LUNKEN    FAIR      78  71  79 CALM      30.12F
HAMILTON       PTSUNNY   77  68  73 S8        30.12S
DAYTON         NOT AVBL
WRIGHT-PAT AFB FAIR      81  69  67 S12       30.10F
DAYTON GENERAL FAIR      77  66  68 S16G23    30.11F
WILMINGTON     LGT RAIN  75  70  84 SW13      30.13S
$$

OHZ036-037-039>041-045>050-054>059-063>069-073>076-082>088-281800-
  CENTRAL AND SOUTHEAST OHIO

CITY           SKY/WX    TMP DP  RH WIND       PRES   REMARKS
COLUMBUS       PTSUNNY   84  65  52 S9        30.11F
OSU AIRPORT    FAIR      84  66  54 VRB5      30.11F
BOLTON FIELD   PTSUNNY   84  68  58 W12       30.12F
RICKENBACK AFB NOT AVBL
NEWARK         FAIR      85  65  51 VRB6      30.12F
MARION         PTSUNNY   84  64  50 W9        30.11F
LANCASTER      PTSUNNY   84  67  56 SW7       30.13F
ZANESVILLE     FAIR      84  66  54 W9        30.14F
NEW PHILLY     FAIR      85  65  51 VRB5      30.14S
$$




USA.gov is the U.S. government's official web portal to all federal, state and local government web resources and services.